Home > Weather > Dharamshala > Past weeks

Flag for India Weather for the Past 2 Weeks in Dharamshala, Himachal Pradesh, India

Now
104 °F

Clear.


Feels Like: 98 °F
Forecast: 58 / 84 °F
Wind: 12 mph from Northwest

Location: Amritsar Airport

Current Time: Apr 30, 2016 at 5:20:14 PM

Latest Report: Apr 30, 2016 at 5:00 PM


Visibility: 4 mi

Pressure: 29.65 "Hg (25.50 "Hg at 1382m altitude)

Humidity: 9%

Dew Point: 36 °F

Location of DharamshalaLocation

Historic Weather in Dharamshala — Graph

°F

Dharamshala Temperature Yesterday

Maximum temperature yesterday: 102 °F (at 3:30 PM)
Minimum temperature yesterday: 68 °F (at 5:30 AM)
Average temperature yesterday: 84 °F

High & Low Weather Summary for the Past Weeks

 TemperatureHumidityPressure
High106 °F (Apr 30, 4:00 PM)83% (Apr 18, 6:30 AM)29.86 "Hg (Apr 18, 6:30 AM)
Low61 °F (Apr 23, 5:30 AM)7% (Apr 29, 4:30 PM)29.53 "Hg (Apr 17, 1:00 AM)
Average84 °F33%29.72 "Hg
* Reported Apr 15 3:30 PM — Apr 30 4:00 PM, Dharamshala, Weather by CustomWeather, © 2016

Note: Actual official high and low records may vary slightly from our data, if they occured in-between our weather recording intervals... More about our weather records

Advertising

Dharamshala Weather History for the Previous 24 Hours

Scroll right to see more
 ConditionsComfort  
Time TempWeatherWind HumidityBarometerVisibility
4:00 PM
Sat, Apr 30
106 °FClear.15 mph8%29.65 "Hg4 mi
3:30 PM104 °FClear.10 mph9%29.68 "Hg4 mi
3:00 PM104 °FClear.12 mph8%29.68 "Hg4 mi
2:30 PM104 °FClear.14 mph7%29.68 "Hg4 mi
2:00 PM104 °FClear.12 mph7%29.71 "Hg4 mi
1:30 PM104 °FClear.9 mph7%29.71 "Hg4 mi
1:00 PM102 °FClear.9 mph8%29.71 "Hg4 mi
12:30 PM102 °FClear.9 mph9%29.74 "Hg4 mi
12:00 PM102 °FClear.9 mph8%29.74 "Hg4 mi
11:30 AM99 °FClear.9 mph10%29.74 "Hg4 mi
11:00 AM99 °FDuststorm.7 mph11%29.74 "Hg2 mi
10:30 AM97 °FDuststorm.3 mph14%29.77 "Hg2 mi
10:00 AM95 °FDuststorm.2 mph12%29.77 "Hg2 mi
9:30 AM91 °FDuststorm.2 mph21%29.74 "Hg2 mi
8:30 AM82 °FDuststorm.No wind32%29.74 "Hg1 mi
8:00 AM77 °FDuststorm.2 mph39%29.74 "Hg2 mi
7:30 AM73 °FHaze.6 mph41%29.74 "Hg2 mi
7:00 AM70 °FHaze.No wind46%29.74 "Hg2 mi
6:30 AM66 °FHaze.No wind52%29.74 "Hg2 mi
6:00 AM64 °FHaze.2 mph56%29.71 "Hg1 mi
5:00 AM68 °FHaze.No wind46%29.71 "Hg1 mi
4:30 AM68 °FHaze.No wind43%29.71 "Hg1 mi
4:00 AM68 °FHaze.No wind46%29.71 "Hg1 mi
3:30 AM73 °FDuststorm.No wind33%29.71 "Hg1 mi
3:00 AM72 °FHaze.No wind38%29.71 "Hg1 mi
1:30 AM72 °FDuststorm.No wind38%29.71 "Hg1 mi
1:00 AM73 °FDuststorm.No wind38%29.71 "Hg1 mi
12:30 AM73 °FDuststorm.No wind33%29.71 "Hg1 mi
12:00 AM75 °FDuststorm.No wind31%29.74 "Hg2 mi
11:30 PM
Fri, Apr 29
77 °FDuststorm.No wind28%29.74 "Hg2 mi
11:00 PM77 °FDuststorm.No wind30%29.71 "Hg2 mi
10:00 PM79 °FDuststorm.No wind26%29.71 "Hg2 mi
9:30 PM81 °FDuststorm.No wind23%29.71 "Hg2 mi
8:30 PM84 °FDuststorm.No wind22%29.71 "Hg2 mi
8:00 PM88 °FDuststorm.No wind16%29.71 "Hg2 mi
7:30 PM93 °FDuststorm.2 mph13%29.71 "Hg2 mi
7:00 PM93 °FDuststorm.2 mph12%29.68 "Hg2 mi
6:30 PM97 °FClear.5 mph10%29.68 "Hg4 mi
6:00 PM99 °FClear.9 mph8%29.68 "Hg4 mi
Weather by CustomWeather, © 2016

See weather overviewHow to use our weather pages